ETH847 HAAB-FACT

Flight info

Callsign ETH847
Flight time N/A
Altitude 38000
Route SHALA2A SHALA UM308 RUDOL/N0488F390 UM308 LOTAS/N0491F380 UM441 LOSIN UP312 OKDAS/N0485F400 UP312 MB UR779 VLS UT916 UPV/N0473F240 Q23 CSV UZ26 ERDAS ERDAS1A
Aircraft A359/H-SDE2E3GHIJ3J4J5LM1ORWXY/LB1D1

Departure

Time 2026-05-01 12:25
Airport Addis Ababa Bole International Airport (HAAB)

Arrival

Time N/A
Airport Cape Town International Airport (FACT)
Time Latitude Longitude Altitude Speed Heading
2026-05-01 10:00 8.98179 38.79487 7627 ft 0 kts 339°
2026-05-01 10:27 8.98178 38.79487 7627 ft 0 kts 339°
2026-05-01 10:49 8.98178 38.79488 7962 ft 0 kts 339°
2026-05-01 11:47 8.98177 38.79488 7627 ft 0 kts 339°
2026-05-01 12:08 8.98168 38.79492 7628 ft 3 kts 344°
2026-05-01 12:08 8.98149 38.79496 7628 ft 3 kts 357°
2026-05-01 12:08 8.98129 38.79497 7628 ft 2 kts 351°
2026-05-01 12:08 8.98114 38.79499 7635 ft 3 kts 341°
2026-05-01 12:09 8.98099 38.79505 7633 ft 3 kts 316°
2026-05-01 12:09 8.98089 38.79517 7633 ft 3 kts 286°
2026-05-01 12:09 8.98086 38.79534 7633 ft 3 kts 265°
2026-05-01 12:09 8.98089 38.79554 7632 ft 3 kts 256°
2026-05-01 12:10 8.98094 38.79574 7635 ft 2 kts 253°
2026-05-01 12:10 8.98096 38.79581 7634 ft 0 kts 253°
2026-05-01 12:15 8.98094 38.79573 7634 ft 5 kts 255°
2026-05-01 12:16 8.98084 38.79534 7633 ft 6 kts 254°
2026-05-01 12:16 8.98070 38.79487 7629 ft 7 kts 253°
2026-05-01 12:16 8.98054 38.79434 7627 ft 9 kts 253°
2026-05-01 12:16 8.98036 38.79370 7627 ft 10 kts 253°
2026-05-01 12:17 8.98015 38.79301 7627 ft 11 kts 253°
2026-05-01 12:17 8.97993 38.79224 7627 ft 12 kts 253°
2026-05-01 12:17 8.97968 38.79140 7627 ft 13 kts 253°
2026-05-01 12:17 8.97943 38.79053 7627 ft 13 kts 253°
2026-05-01 12:18 8.97916 38.78958 7627 ft 14 kts 253°
2026-05-01 12:18 8.97888 38.78863 7627 ft 15 kts 253°
2026-05-01 12:18 8.97854 38.78770 7627 ft 13 kts 231°
2026-05-01 12:18 8.97780 38.78760 7627 ft 10 kts 173°
2026-05-01 12:19 8.97711 38.78779 7627 ft 12 kts 163°
2026-05-01 12:19 8.97627 38.78802 7627 ft 13 kts 167°
2026-05-01 12:19 8.97566 38.78767 7628 ft 9 kts 234°
2026-05-01 12:19 8.97537 38.78712 7628 ft 8 kts 249°
2026-05-01 12:20 8.97521 38.78656 7628 ft 9 kts 254°
2026-05-01 12:20 8.97501 38.78587 7627 ft 11 kts 253°
2026-05-01 12:20 8.97478 38.78509 7627 ft 12 kts 253°
2026-05-01 12:20 8.97454 38.78428 7628 ft 12 kts 253°
2026-05-01 12:21 8.97430 38.78345 7628 ft 13 kts 253°
2026-05-01 12:21 8.97380 38.78289 7627 ft 10 kts 192°
2026-05-01 12:21 8.97331 38.78306 7626 ft 0 kts 147°
2026-05-01 12:23 8.97329 38.78307 7626 ft 3 kts 147°
2026-05-01 12:23 8.97272 38.78348 7626 ft 13 kts 139°
2026-05-01 12:23 8.97253 38.78411 7626 ft 9 kts 90°
2026-05-01 12:23 8.97266 38.78474 7626 ft 10 kts 75°
2026-05-01 12:24 8.97288 38.78549 7629 ft 13 kts 73°
2026-05-01 12:24 8.97324 38.78678 7627 ft 32 kts 75°
2026-05-01 12:24 8.97439 38.79066 7626 ft 87 kts 73°
2026-05-01 12:24 8.97674 38.79846 7627 ft 143 kts 72°
2026-05-01 12:25 8.98001 38.80979 7627 ft 188 kts 73°
2026-05-01 12:25 8.98777 38.83597 8984 ft 188 kts 72°
2026-05-01 12:25 8.99219 38.84810 9876 ft 158 kts 69°
2026-05-01 12:26 8.99697 38.85729 10300 ft 160 kts 59°
2026-05-01 12:26 9.01265 38.87947 10379 ft 205 kts 53°
2026-05-01 12:26 9.01843 38.89243 10902 ft 202 kts 81°
2026-05-01 12:27 9.01700 38.90626 11468 ft 198 kts 111°
2026-05-01 12:27 8.99522 38.91846 12481 ft 201 kts 193°
2026-05-01 12:28 8.97341 38.89948 13131 ft 230 kts 230°
2026-05-01 12:28 8.96239 38.88683 13446 ft 253 kts 230°
2026-05-01 12:28 8.93564 38.85757 13853 ft 299 kts 218°
2026-05-01 12:29 8.91734 38.84885 14691 ft 286 kts 195°
2026-05-01 12:29 8.89885 38.84251 15129 ft 285 kts 203°
2026-05-01 12:29 8.86100 38.82930 15268 ft 289 kts 197°
2026-05-01 12:30 8.82296 38.81666 15478 ft 289 kts 198°
2026-05-01 12:30 8.80360 38.81014 15663 ft 299 kts 198°
2026-05-01 12:30 8.78341 38.80332 15930 ft 313 kts 198°
2026-05-01 12:31 8.76233 38.79620 16237 ft 325 kts 198°
2026-05-01 12:31 8.74048 38.78879 16527 ft 337 kts 198°
2026-05-01 12:31 8.71812 38.78122 16858 ft 348 kts 198°
2026-05-01 12:31 8.69493 38.77336 17189 ft 358 kts 198°
2026-05-01 12:32 8.67108 38.76529 17522 ft 368 kts 198°
2026-05-01 12:32 8.62105 38.74842 18143 ft 387 kts 197°
2026-05-01 12:32 8.59507 38.73964 18431 ft 397 kts 198°
2026-05-01 12:33 8.56893 38.73078 18706 ft 405 kts 198°
2026-05-01 12:33 8.54195 38.72165 18976 ft 413 kts 198°
2026-05-01 12:33 8.51460 38.71240 19234 ft 420 kts 197°
2026-05-01 12:33 8.48660 38.70294 19502 ft 427 kts 198°
2026-05-01 12:34 8.45833 38.69339 19770 ft 434 kts 198°
2026-05-01 12:34 8.42956 38.68367 20081 ft 438 kts 197°
2026-05-01 12:34 8.40037 38.67382 20435 ft 442 kts 197°
2026-05-01 12:34 8.37129 38.66400 20784 ft 445 kts 197°
2026-05-01 12:35 8.34171 38.65400 21128 ft 448 kts 197°
2026-05-01 12:35 8.31219 38.64404 21524 ft 450 kts 197°
2026-05-01 12:35 8.28228 38.63393 21915 ft 452 kts 197°
2026-05-01 12:35 8.25284 38.62400 22252 ft 455 kts 197°
2026-05-01 12:36 8.22277 38.61388 22637 ft 457 kts 197°
2026-05-01 12:36 8.19296 38.60384 23028 ft 459 kts 197°
2026-05-01 12:36 8.16278 38.59366 23430 ft 460 kts 197°
2026-05-01 12:36 8.13215 38.58333 23722 ft 463 kts 197°
2026-05-01 12:37 8.10179 38.57308 23983 ft 466 kts 197°
2026-05-01 12:37 8.07085 38.56265 24282 ft 468 kts 197°
2026-05-01 12:37 8.04017 38.55232 24595 ft 470 kts 198°
2026-05-01 12:37 8.00863 38.54170 24894 ft 473 kts 198°
2026-05-01 12:38 7.97772 38.53128 25220 ft 475 kts 198°
2026-05-01 12:38 7.94647 38.52075 25575 ft 476 kts 198°
2026-05-01 12:38 7.91489 38.51012 25905 ft 479 kts 198°
2026-05-01 12:38 7.88338 38.49951 26285 ft 481 kts 198°
2026-05-01 12:39 7.85138 38.48874 26655 ft 484 kts 198°
2026-05-01 12:39 7.81943 38.47798 27042 ft 486 kts 198°
2026-05-01 12:39 7.78763 38.46728 27404 ft 488 kts 198°
2026-05-01 12:39 7.75492 38.45627 27791 ft 491 kts 198°
2026-05-01 12:40 7.72279 38.44546 28158 ft 493 kts 198°
2026-05-01 12:40 7.69022 38.43451 28514 ft 496 kts 198°
2026-05-01 12:40 7.65746 38.42349 28885 ft 498 kts 198°
2026-05-01 12:40 7.62451 38.41241 29223 ft 501 kts 199°
2026-05-01 12:41 7.59144 38.40129 29551 ft 504 kts 199°
2026-05-01 12:41 7.55786 38.39000 29906 ft 506 kts 199°
2026-05-01 12:41 7.52463 38.37883 30208 ft 508 kts 199°
2026-05-01 12:41 7.49078 38.36746 30479 ft 510 kts 199°
2026-05-01 12:42 7.45717 38.35636 30760 ft 512 kts 198°
2026-05-01 12:42 7.42279 38.34642 31028 ft 513 kts 195°
2026-05-01 12:42 7.38832 38.33741 31353 ft 513 kts 194°
2026-05-01 12:42 7.35419 38.32874 31754 ft 512 kts 194°
2026-05-01 12:43 7.31966 38.31987 32113 ft 510 kts 195°
2026-05-01 12:43 7.28540 38.31089 32476 ft 509 kts 195°
2026-05-01 12:43 7.25153 38.30185 32825 ft 509 kts 195°
2026-05-01 12:43 7.21721 38.29258 33199 ft 507 kts 195°
2026-05-01 12:44 7.18314 38.28333 33573 ft 506 kts 196°
2026-05-01 12:44 7.14953 38.27418 33898 ft 505 kts 196°
2026-05-01 12:44 7.08193 38.25579 34455 ft 504 kts 196°
2026-05-01 12:45 7.01409 38.23737 34969 ft 504 kts 195°
2026-05-01 12:45 6.98033 38.22822 35226 ft 503 kts 195°
2026-05-01 12:45 6.94657 38.21906 35471 ft 503 kts 195°
2026-05-01 12:46 6.91274 38.20988 35707 ft 503 kts 195°
2026-05-01 12:46 6.87899 38.20073 35967 ft 502 kts 195°
2026-05-01 12:46 6.84577 38.19173 36205 ft 502 kts 195°
2026-05-01 12:46 6.81192 38.18256 36434 ft 502 kts 195°
2026-05-01 12:47 6.77824 38.17344 36665 ft 502 kts 195°
2026-05-01 12:47 6.74450 38.16429 36887 ft 502 kts 195°
2026-05-01 12:47 6.71082 38.15517 37108 ft 501 kts 195°
2026-05-01 12:47 6.67714 38.14604 37327 ft 501 kts 195°
2026-05-01 12:48 6.64344 38.13691 37532 ft 501 kts 195°
2026-05-01 12:48 6.60988 38.12782 37748 ft 501 kts 195°
2026-05-01 12:48 6.57633 38.11874 37907 ft 502 kts 195°
2026-05-01 12:48 6.54211 38.10948 37933 ft 504 kts 195°
2026-05-01 12:49 6.47524 38.09141 37935 ft 503 kts 195°
2026-05-01 12:49 6.40779 38.07296 37934 ft 502 kts 195°
2026-05-01 12:50 6.34031 38.05449 37935 ft 502 kts 195°
2026-05-01 12:50 6.27267 38.03604 37937 ft 502 kts 194°
2026-05-01 12:51 6.20553 38.01775 37940 ft 501 kts 194°
2026-05-01 12:52 6.10508 37.99040 37948 ft 500 kts 194°
2026-05-01 12:52 6.00426 37.96295 37944 ft 499 kts 194°
2026-05-01 12:53 5.90361 37.93556 37946 ft 499 kts 194°
2026-05-01 12:54 5.83661 37.91734 37953 ft 500 kts 194°
2026-05-01 12:54 5.73649 37.89011 37950 ft 500 kts 194°
2026-05-01 12:55 5.63574 37.86272 37950 ft 501 kts 194°
2026-05-01 12:56 5.56878 37.84452 37945 ft 501 kts 194°
2026-05-01 12:56 5.50143 37.82621 37947 ft 501 kts 194°
2026-05-01 12:57 5.43408 37.80792 37945 ft 501 kts 194°
2026-05-01 12:57 5.33475 37.78095 37941 ft 502 kts 194°
2026-05-01 12:58 5.26782 37.76278 37939 ft 502 kts 194°
2026-05-01 12:59 5.16689 37.73539 37934 ft 502 kts 194°
2026-05-01 12:59 5.06603 37.70802 37930 ft 502 kts 194°
2026-05-01 13:00 4.96497 37.68061 37933 ft 502 kts 194°
2026-05-01 13:01 4.86386 37.65319 37925 ft 503 kts 194°
2026-05-01 13:02 4.76285 37.62581 37930 ft 503 kts 194°
2026-05-01 13:07 4.02015 37.42472 37885 ft 502 kts 194°
2026-05-01 13:07 3.98629 37.41557 37998 ft 501 kts 194°
2026-05-01 13:08 3.95327 37.40646 38209 ft 500 kts 195°
2026-05-01 13:08 3.91958 37.39651 38445 ft 499 kts 196°
2026-05-01 13:08 3.88637 37.38639 38672 ft 498 kts 196°
2026-05-01 13:08 3.85325 37.37630 38825 ft 498 kts 196°
2026-05-01 13:09 3.81996 37.36625 38869 ft 500 kts 195°
2026-05-01 13:09 3.75341 37.34645 38863 ft 500 kts 195°
2026-05-01 13:10 3.68683 37.32679 38863 ft 499 kts 195°
2026-05-01 13:10 3.62046 37.30721 38868 ft 498 kts 195°
2026-05-01 13:11 3.55384 37.28754 38856 ft 499 kts 195°
2026-05-01 13:11 3.48744 37.26793 38853 ft 500 kts 195°
2026-05-01 13:12 3.42072 37.24824 38850 ft 500 kts 195°
2026-05-01 13:12 3.35376 37.22847 38847 ft 501 kts 195°
2026-05-01 13:13 3.28704 37.20879 38853 ft 502 kts 195°
2026-05-01 13:13 3.22033 37.18910 38846 ft 502 kts 195°
2026-05-01 13:14 3.15326 37.16931 38852 ft 502 kts 195°
2026-05-01 13:14 3.08674 37.14968 38851 ft 502 kts 196°
2026-05-01 13:15 3.01973 37.12992 38855 ft 502 kts 196°
2026-05-01 13:15 2.95277 37.11016 38845 ft 502 kts 196°
2026-05-01 13:16 2.88591 37.09045 38854 ft 501 kts 196°
2026-05-01 13:16 2.81920 37.07078 38858 ft 501 kts 196°
2026-05-01 13:17 2.68557 37.03138 38861 ft 501 kts 196°
2026-05-01 13:18 2.58601 37.00204 38860 ft 500 kts 196°
2026-05-01 13:18 2.51899 36.98229 38864 ft 500 kts 196°
2026-05-01 13:19 2.45251 36.96270 38872 ft 501 kts 196°
2026-05-01 13:20 2.35232 36.93317 38874 ft 501 kts 196°
2026-05-01 13:20 2.28515 36.91339 38882 ft 501 kts 196°
2026-05-01 13:21 2.18514 36.88392 38891 ft 501 kts 196°
2026-05-01 13:21 2.11805 36.86416 38896 ft 501 kts 196°
2026-05-01 13:22 2.05175 36.84464 38901 ft 500 kts 196°
2026-05-01 13:22 1.98596 36.82527 38909 ft 500 kts 196°
2026-05-01 13:23 1.91917 36.80559 38909 ft 499 kts 196°
2026-05-01 13:23 1.85254 36.78597 38914 ft 500 kts 196°
2026-05-01 13:24 1.78600 36.76638 38911 ft 500 kts 196°
2026-05-01 13:25 1.68574 36.73686 38912 ft 500 kts 196°
2026-05-01 13:25 1.61934 36.71732 38916 ft 500 kts 196°
2026-05-01 13:26 1.55272 36.69771 38914 ft 500 kts 196°
2026-05-01 13:26 1.48570 36.67798 38922 ft 499 kts 196°
2026-05-01 13:27 1.41929 36.65844 38930 ft 499 kts 196°
2026-05-01 13:27 1.31940 36.62904 38940 ft 500 kts 196°
2026-05-01 13:28 1.21938 36.59961 38951 ft 499 kts 196°
2026-05-01 13:29 1.08653 36.56052 38964 ft 498 kts 196°
2026-05-01 13:30 0.95193 36.52947 38969 ft 497 kts 185°
2026-05-01 13:31 0.88510 36.52287 38981 ft 498 kts 185°
2026-05-01 13:32 0.71244 36.50582 38992 ft 498 kts 185°
2026-05-01 13:33 0.54035 36.48865 38999 ft 500 kts 185°
2026-05-01 13:34 0.40213 36.47487 39027 ft 501 kts 185°
2026-05-01 13:35 0.29787 36.46447 39037 ft 503 kts 185°
2026-05-01 13:36 0.19303 36.45403 39062 ft 504 kts 185°
2026-05-01 13:36 0.08945 36.44370 39084 ft 505 kts 185°
2026-05-01 13:37 0.01907 36.43668 39098 ft 505 kts 186°
2026-05-01 13:37 -0.05106 36.42968 39099 ft 506 kts 186°
2026-05-01 13:38 -0.15621 36.41920 39118 ft 506 kts 186°
2026-05-01 13:39 -0.22562 36.41228 39120 ft 505 kts 186°
2026-05-01 13:39 -0.29547 36.40531 39127 ft 505 kts 186°
2026-05-01 13:40 -0.36543 36.39834 39152 ft 504 kts 186°
2026-05-01 13:40 -0.43464 36.39143 39134 ft 504 kts 186°
2026-05-01 13:41 -0.50461 36.38446 39149 ft 504 kts 186°
2026-05-01 13:41 -0.57419 36.37752 39151 ft 505 kts 186°
2026-05-01 13:42 -0.64459 36.37067 39143 ft 506 kts 185°
2026-05-01 13:42 -0.71447 36.36387 39148 ft 507 kts 186°
2026-05-01 13:43 -0.78478 36.35701 39154 ft 507 kts 185°
2026-05-01 13:43 -0.85444 36.35023 39156 ft 506 kts 185°
2026-05-01 13:44 -0.92446 36.34323 39160 ft 506 kts 186°
2026-05-01 13:44 -0.99446 36.33594 39159 ft 505 kts 186°
2026-05-01 13:45 -1.06398 36.32878 39156 ft 505 kts 186°
2026-05-01 13:45 -1.13440 36.32164 39153 ft 505 kts 185°
2026-05-01 13:46 -1.20380 36.31477 39144 ft 505 kts 185°
2026-05-01 13:46 -1.27334 36.30781 39139 ft 506 kts 185°
2026-05-01 13:47 -1.34335 36.30082 39127 ft 506 kts 185°
2026-05-01 13:47 -1.41376 36.29388 39121 ft 507 kts 185°
2026-05-01 13:48 -1.48366 36.28688 39109 ft 507 kts 186°
2026-05-01 13:48 -1.55395 36.27976 39104 ft 506 kts 186°
2026-05-01 13:49 -1.62370 36.27280 39096 ft 505 kts 186°
2026-05-01 13:49 -1.69352 36.26587 39094 ft 505 kts 186°
2026-05-01 13:50 -1.76318 36.25894 39085 ft 504 kts 186°
2026-05-01 13:50 -1.83301 36.25197 39074 ft 503 kts 186°
2026-05-01 13:51 -1.90275 36.24501 39079 ft 502 kts 186°
2026-05-01 13:51 -1.97186 36.23811 39072 ft 501 kts 186°
2026-05-01 13:52 -2.04130 36.23118 39075 ft 500 kts 186°
2026-05-01 13:52 -2.10998 36.22433 39071 ft 499 kts 186°
2026-05-01 13:53 -2.17915 36.21742 39069 ft 499 kts 186°
2026-05-01 13:53 -2.28241 36.20702 39068 ft 498 kts 186°
2026-05-01 13:54 -2.35119 36.20018 39071 ft 498 kts 185°
2026-05-01 13:54 -2.42014 36.19331 39078 ft 499 kts 186°
2026-05-01 13:55 -2.48934 36.18639 39081 ft 499 kts 186°
2026-05-01 13:55 -2.55828 36.17949 39086 ft 499 kts 186°
2026-05-01 13:56 -2.62766 36.17255 39093 ft 500 kts 185°
2026-05-01 13:56 -2.69629 36.16568 39098 ft 500 kts 185°
2026-05-01 13:57 -2.75436 36.15989 39104 ft 500 kts 185°
2026-05-01 13:57 -2.83471 36.15198 39112 ft 500 kts 185°
2026-05-01 13:58 -2.90420 36.14500 39118 ft 500 kts 185°
2026-05-01 13:58 -2.97304 36.13813 39128 ft 500 kts 185°
2026-05-01 13:59 -3.04224 36.13125 39142 ft 501 kts 185°
2026-05-01 13:59 -3.11104 36.12393 39142 ft 501 kts 189°
2026-05-01 14:00 -3.17760 36.10264 39159 ft 500 kts 205°
2026-05-01 14:00 -3.24049 36.07366 39161 ft 501 kts 205°
2026-05-01 14:01 -3.30163 36.04547 39166 ft 501 kts 204°
2026-05-01 14:01 -3.36512 36.01638 39164 ft 501 kts 204°
2026-05-01 14:02 -3.42861 35.98739 39162 ft 501 kts 204°
2026-05-01 14:02 -3.49217 35.95838 39164 ft 501 kts 204°
2026-05-01 14:03 -3.55491 35.92972 39161 ft 501 kts 204°
2026-05-01 14:03 -3.61834 35.90067 39160 ft 501 kts 205°
2026-05-01 14:04 -3.68114 35.87140 39161 ft 502 kts 205°
2026-05-01 14:04 -3.73387 35.84686 39157 ft 502 kts 204°
2026-05-01 14:05 -3.80779 35.81258 39157 ft 502 kts 204°
2026-05-01 14:05 -3.87113 35.78324 39159 ft 502 kts 204°
2026-05-01 14:06 -3.93472 35.75378 39161 ft 502 kts 204°
2026-05-01 14:06 -3.99738 35.72477 39165 ft 502 kts 204°
2026-05-01 14:07 -4.06146 35.69602 39168 ft 502 kts 203°
2026-05-01 14:08 -4.15713 35.65347 39166 ft 503 kts 203°
2026-05-01 14:08 -4.22107 35.62487 39171 ft 503 kts 203°
2026-05-01 14:09 -4.28490 35.59629 39170 ft 503 kts 204°
2026-05-01 14:09 -4.34857 35.56721 39170 ft 503 kts 204°
2026-05-01 14:10 -4.41191 35.53806 39168 ft 503 kts 204°
2026-05-01 14:10 -4.47551 35.50894 39166 ft 503 kts 204°
2026-05-01 14:11 -4.53914 35.47989 39158 ft 504 kts 204°
2026-05-01 14:11 -4.63495 35.43618 39148 ft 504 kts 204°
2026-05-01 14:12 -4.69818 35.40737 39145 ft 504 kts 204°
2026-05-01 14:12 -4.76184 35.37822 39137 ft 504 kts 204°
2026-05-01 14:13 -4.81529 35.35376 39133 ft 505 kts 204°
2026-05-01 14:13 -4.88959 35.31980 39125 ft 505 kts 204°
2026-05-01 14:14 -4.95417 35.29029 39118 ft 505 kts 204°
2026-05-01 14:14 -5.01765 35.26127 39111 ft 505 kts 204°
2026-05-01 14:15 -5.08120 35.23221 39109 ft 506 kts 204°
2026-05-01 14:15 -5.14552 35.20279 39124 ft 506 kts 204°
2026-05-01 14:16 -5.20898 35.17383 39357 ft 506 kts 203°
2026-05-01 14:16 -5.24143 35.15899 39538 ft 505 kts 204°
2026-05-01 14:16 -5.27293 35.14450 39690 ft 505 kts 204°
2026-05-01 14:17 -5.30473 35.12985 39842 ft 505 kts 204°
2026-05-01 14:17 -5.33703 35.11498 39966 ft 504 kts 203°
2026-05-01 14:17 -5.36897 35.10030 40075 ft 505 kts 203°
2026-05-01 14:17 -5.40080 35.08568 40089 ft 506 kts 203°
2026-05-01 14:18 -5.46498 35.05622 40085 ft 506 kts 203°
2026-05-01 14:18 -5.51766 35.03203 40065 ft 505 kts 203°
2026-05-01 14:19 -5.59178 34.99798 40078 ft 505 kts 203°
2026-05-01 14:19 -5.65573 34.96860 40070 ft 506 kts 203°
2026-05-01 14:20 -5.75212 34.92430 40062 ft 506 kts 203°
2026-05-01 14:21 -5.81590 34.89506 40066 ft 506 kts 203°
2026-05-01 14:21 -5.87999 34.86567 40061 ft 506 kts 203°
2026-05-01 14:22 -5.97616 34.82141 40056 ft 507 kts 203°
2026-05-01 14:22 -6.03990 34.79211 40043 ft 506 kts 203°
2026-05-01 14:23 -6.10405 34.76263 40045 ft 506 kts 203°
2026-05-01 14:23 -6.16776 34.73334 40033 ft 506 kts 203°
2026-05-01 14:24 -6.23173 34.70393 40036 ft 507 kts 203°
2026-05-01 14:24 -6.29578 34.67446 40028 ft 507 kts 203°
2026-05-01 14:25 -6.36007 34.64488 40026 ft 507 kts 203°
2026-05-01 14:25 -6.42378 34.61556 40021 ft 507 kts 203°
2026-05-01 14:26 -6.50032 34.58032 40014 ft 507 kts 203°
2026-05-01 14:27 -6.56415 34.55093 40016 ft 507 kts 203°
2026-05-01 14:27 -6.62833 34.52137 40013 ft 507 kts 203°
2026-05-01 14:28 -6.72439 34.47710 39992 ft 508 kts 203°
2026-05-01 14:28 -6.78843 34.44758 39999 ft 508 kts 203°
2026-05-01 14:29 -6.85274 34.41793 39993 ft 508 kts 203°
2026-05-01 14:30 -6.98086 34.35883 39985 ft 508 kts 203°
2026-05-01 14:31 -7.07720 34.31437 39981 ft 509 kts 203°
2026-05-01 14:31 -7.14144 34.28471 39978 ft 509 kts 203°
2026-05-01 14:32 -7.20596 34.25491 39975 ft 509 kts 203°
2026-05-01 14:32 -7.27017 34.22524 39980 ft 509 kts 203°
2026-05-01 14:33 -7.33460 34.19546 39976 ft 510 kts 203°
2026-05-01 14:33 -7.39869 34.16583 39981 ft 510 kts 204°
2026-05-01 14:34 -7.46361 34.13581 39980 ft 510 kts 204°
2026-05-01 14:34 -7.52782 34.10611 39979 ft 510 kts 204°
2026-05-01 14:35 -7.59253 34.07616 39972 ft 510 kts 204°
2026-05-01 14:35 -7.65629 34.04665 39983 ft 510 kts 204°
2026-05-01 14:36 -7.72098 34.01669 39982 ft 511 kts 204°
2026-05-01 14:36 -7.78513 33.98698 39984 ft 511 kts 204°
2026-05-01 14:37 -7.84986 33.95699 39982 ft 511 kts 204°
2026-05-01 14:37 -7.91395 33.92728 39977 ft 510 kts 204°
2026-05-01 14:38 -7.97863 33.89729 39975 ft 510 kts 204°
2026-05-01 14:38 -8.04322 33.86732 39968 ft 510 kts 204°
2026-05-01 14:39 -8.10749 33.83750 39968 ft 510 kts 204°
2026-05-01 14:39 -8.17175 33.80767 39965 ft 510 kts 204°
2026-05-01 14:40 -8.23625 33.77772 39960 ft 510 kts 204°
2026-05-01 14:40 -8.30051 33.74788 39952 ft 510 kts 204°
2026-05-01 14:41 -8.36514 33.71784 39954 ft 510 kts 204°
2026-05-01 14:41 -8.42926 33.68804 39958 ft 510 kts 204°
2026-05-01 14:42 -8.48322 33.66294 39961 ft 510 kts 204°
2026-05-01 14:42 -8.55784 33.62823 39961 ft 510 kts 204°
2026-05-01 14:43 -8.61243 33.60282 39976 ft 509 kts 204°
2026-05-01 14:43 -8.67612 33.57317 39979 ft 509 kts 204°
2026-05-01 14:44 -8.75085 33.53837 39999 ft 508 kts 204°
2026-05-01 14:44 -8.83664 33.49840 40007 ft 508 kts 204°
2026-05-01 14:45 -8.93117 33.45133 40025 ft 507 kts 214°
2026-05-01 14:46 -8.98774 33.40925 40031 ft 507 kts 217°
2026-05-01 14:46 -9.07233 33.34453 40037 ft 506 kts 217°
2026-05-01 14:47 -9.12849 33.30173 40029 ft 506 kts 217°
2026-05-01 14:48 -9.21269 33.23760 40031 ft 505 kts 217°
2026-05-01 14:48 -9.29662 33.17364 40028 ft 505 kts 217°
2026-05-01 14:49 -9.40868 33.08817 40015 ft 505 kts 217°
2026-05-01 14:50 -9.52049 33.00264 40003 ft 505 kts 217°
2026-05-01 14:51 -9.60395 32.93816 39992 ft 505 kts 217°
2026-05-01 14:52 -9.68769 32.87365 39986 ft 504 kts 217°
2026-05-01 14:53 -9.77180 32.80886 39981 ft 503 kts 217°
2026-05-01 14:53 -9.82714 32.76620 39976 ft 503 kts 217°
2026-05-01 14:54 -9.88281 32.72326 39978 ft 503 kts 217°
2026-05-01 14:54 -9.93800 32.68067 39979 ft 503 kts 217°
2026-05-01 14:55 -9.99388 32.63754 39982 ft 503 kts 217°
2026-05-01 14:55 -10.04966 32.59446 39978 ft 503 kts 217°
2026-05-01 14:56 -10.10515 32.55158 39977 ft 503 kts 217°
2026-05-01 14:56 -10.16118 32.50828 39986 ft 503 kts 217°
2026-05-01 14:57 -10.21634 32.46562 39989 ft 503 kts 217°
2026-05-01 14:57 -10.29943 32.40132 39988 ft 503 kts 217°
2026-05-01 14:58 -10.35508 32.35824 39989 ft 503 kts 217°
2026-05-01 14:58 -10.41012 32.31561 39987 ft 503 kts 217°
2026-05-01 14:59 -10.46560 32.27261 39988 ft 502 kts 217°
2026-05-01 14:59 -10.52113 32.22956 39992 ft 503 kts 217°
2026-05-01 15:00 -10.60466 32.16476 39996 ft 503 kts 217°
2026-05-01 15:01 -10.66015 32.12169 39994 ft 503 kts 217°
2026-05-01 15:01 -10.71600 32.07832 39997 ft 503 kts 217°
2026-05-01 15:02 -10.77104 32.03556 39996 ft 502 kts 217°
2026-05-01 15:02 -10.82662 31.99237 40004 ft 502 kts 217°
2026-05-01 15:03 -10.88229 31.94897 40005 ft 502 kts 217°
2026-05-01 15:03 -10.93739 31.90608 40009 ft 503 kts 217°
2026-05-01 15:04 -10.99305 31.86284 40014 ft 503 kts 217°
2026-05-01 15:04 -11.04853 31.81966 40015 ft 503 kts 217°
2026-05-01 15:05 -11.10415 31.77632 40018 ft 502 kts 217°
2026-05-01 15:05 -11.15910 31.73368 40016 ft 501 kts 217°
2026-05-01 15:06 -11.21468 31.69029 40023 ft 501 kts 217°
2026-05-01 15:06 -11.26962 31.64740 40018 ft 501 kts 217°
2026-05-01 15:07 -11.32515 31.60409 40016 ft 501 kts 217°
2026-05-01 15:07 -11.38049 31.56092 40018 ft 501 kts 217°
2026-05-01 15:08 -11.43360 31.51946 40017 ft 501 kts 217°
2026-05-01 15:08 -11.48935 31.47592 40020 ft 501 kts 217°
2026-05-01 15:09 -11.54426 31.43302 40014 ft 501 kts 217°
2026-05-01 15:09 -11.59968 31.38969 40017 ft 500 kts 218°
2026-05-01 15:10 -11.65477 31.34659 40012 ft 500 kts 218°
2026-05-01 15:10 -11.73743 31.28190 40013 ft 500 kts 218°
2026-05-01 15:11 -11.81988 31.21732 40009 ft 501 kts 218°
2026-05-01 15:12 -11.87523 31.17393 40013 ft 500 kts 218°
2026-05-01 15:12 -11.95805 31.10898 40006 ft 500 kts 218°
2026-05-01 15:14 -12.09541 31.00112 40005 ft 499 kts 218°
2026-05-01 15:14 -12.17808 30.93615 40014 ft 499 kts 218°
2026-05-01 15:15 -12.28708 30.85040 40010 ft 499 kts 218°
2026-05-01 15:16 -12.39667 30.76408 40003 ft 498 kts 218°
2026-05-01 15:18 -12.53355 30.65615 40004 ft 497 kts 218°
2026-05-01 15:19 -12.64303 30.56971 40004 ft 496 kts 218°
2026-05-01 15:19 -12.72483 30.50506 40009 ft 495 kts 218°
2026-05-01 15:20 -12.80626 30.44066 40013 ft 494 kts 218°
2026-05-01 15:21 -12.86005 30.39809 40011 ft 493 kts 218°
2026-05-01 15:21 -12.91437 30.35508 40011 ft 493 kts 218°
2026-05-01 15:22 -12.99547 30.29099 40023 ft 492 kts 218°
2026-05-01 15:22 -13.04986 30.24786 40020 ft 491 kts 218°
2026-05-01 15:23 -13.10373 30.20511 40022 ft 490 kts 218°
2026-05-01 15:23 -13.15749 30.16246 40027 ft 490 kts 218°
2026-05-01 15:24 -13.21129 30.11978 40028 ft 490 kts 218°
2026-05-01 15:24 -13.26514 30.07705 40032 ft 489 kts 218°
2026-05-01 15:25 -13.31911 30.03419 40034 ft 489 kts 218°
2026-05-01 15:25 -13.37286 29.99148 40037 ft 489 kts 218°
2026-05-01 15:26 -13.42665 29.94882 40035 ft 489 kts 218°
2026-05-01 15:26 -13.47994 29.90640 40039 ft 489 kts 218°
2026-05-01 15:27 -13.53374 29.86356 40036 ft 488 kts 218°
2026-05-01 15:28 -13.61433 29.79940 40032 ft 488 kts 219°
2026-05-01 15:28 -13.66775 29.75686 40035 ft 488 kts 219°
2026-05-01 15:29 -13.74823 29.69267 40029 ft 488 kts 219°
2026-05-01 15:30 -13.85522 29.60729 40030 ft 488 kts 219°
2026-05-01 15:31 -14.01577 29.47895 40023 ft 488 kts 219°
2026-05-01 15:32 -14.12295 29.39316 40022 ft 488 kts 219°
2026-05-01 15:34 -14.28365 29.26432 40015 ft 487 kts 219°